Location: Brno
(49.2000°N, 16.6330°E)
Time: 17:01:44
(UTC+02:00)

Daily predictions for brighter satellites

Satellite Brightness Start Highest point End
(mag) Time Altitude Azimuth Time Altitude Azimuth Time Altitude Azimuth
Cosmos 2315 Rocket 4.0 21:40:15 10° N 21:46:30 79° E 21:52:42 10° SSE
YAOGAN 6 2.6 21:43:57 10° SSE 21:47:36 82° ENE 21:51:14 10° N
Cosmos 2242 Rocket 4.4 21:45:28 10° N 21:49:38 37° ENE 21:53:49 10° SE
Cosmos 2266 Rocket 4.1 21:43:44 10° S 21:50:03 87° W 21:56:16 10° N
Cosmos 1455 4.0 21:52:03 10° NNE 21:54:45 18° ENE 21:57:27 10° ESE
Cosmos 2219 3.5 21:51:06 10° S 21:56:38 51° ESE 22:02:12 10° NE
Cosmos 2333 4.3 21:53:35 10° NNW 21:59:19 77° ENE 22:05:05 10° SSE
SeaSat 1 4.4 21:55:45 10° E 21:59:22 21° NE 22:02:59 10° N
ATLAS 2AS CENTAUR R/B 4.4 21:55:01 10° SE 21:59:27 17° ESE 22:04:04 10° ENE
Cosmos 2237 Rocket 3.1 21:55:49 10° NNW 22:01:12 40° NE 22:06:33 10° ESE
Meteor 1-27 4.3 21:56:35 10° N 22:02:21 81° ENE 22:07:59 10° SSE
USA 245 2.3 22:02:39 10° S 22:05:11 68° WSW 22:07:29 10° NNW
DELTA 2 DEB (DPAF) 4.4 22:00:50 10° SSE 22:05:15 58° ENE 22:09:40 10° N
Cosmos 1328 3.8 22:02:03 10° S 22:06:00 85° W 22:10:00 10° N
CZ-4C R/B 3.4 22:03:22 10° SSE 22:06:41 51° ENE 22:10:05 10° N
SL-08 RB Rocket 3.7 22:02:28 10° SSE 22:06:56 76° ENE 22:11:26 10° N
COSMOS 2455 4.1 22:01:42 10° NNW 22:07:07 33° NE 22:12:30 10° ESE
Cosmos 2151 3.3 22:04:02 10° SSW 22:08:13 70° W 22:12:27 10° N
CARTOSAT-1 4.2 22:05:37 10° SE 22:09:37 43° ENE 22:13:43 10° N
Sich 1 3.4 22:07:12 10° S 22:11:29 50° E 22:15:45 10° NNE
Cosmos 1633 Rocket 3.4 22:09:10 10° SSE 22:13:23 49° E 22:17:37 10° NNE
ATLAS 3B R/B 3.6 22:06:29 10° NW 22:13:23 44° NNE 22:19:50 10° ESE
SPOT 5 4.1 22:09:07 10° SSW 22:13:24 38° W 22:17:56 10° NNW
Nadezhda 1 Rocket 4.4 22:07:33 10° N 22:13:25 47° ENE 22:18:56 12° SSE
Cosmos 2360 Rocket 3.4 22:08:30 10° NW 22:13:39 37° WSW 22:18:48 10° S
USA 32 4.2 22:09:08 10° N 22:14:22 61° E 22:19:26 11° SSE
SAR-Lupe-2 4.4 22:14:38 12° SE 22:17:35 37° ENE 22:20:56 10° N
Lacrosse 4 Rocket 3.4 22:14:38 10° NNW 22:18:07 22° NE 22:21:37 10° E
Meteor 2-10 4.4 22:13:39 10° N 22:19:18 62° ENE 22:24:32 12° SSE
NOAA 11 4.3 22:15:09 10° S 22:20:36 77° WSW 22:26:06 10° NNW
Cosmos 1726 2.2 22:16:50 10° NNW 22:20:37 81° W 22:24:20 10° S
NOSS 3-1 (C) 3.6 22:17:26 10° SSW 22:23:11 54° ESE 22:29:36 10° NE
Cosmos 1271 Rocket 2.7 22:23:37 10° N 22:27:27 80° ENE 22:30:44 14° SSE
Cosmos 1805 Rocket 3.8 22:23:30 10° SSW 22:27:57 75° W 22:32:25 10° N
Cosmos 1745 Rocket 4.2 22:23:54 10° SSE 22:29:56 55° E 22:35:56 10° NNE
Cosmos 2058 3.3 22:26:04 10° SSW 22:30:09 65° WNW 22:34:16 10° N
SL-14 R/B 3.3 22:27:25 10° S 22:31:22 88° E 22:35:25 10° N
Cosmos 1703 3.5 22:28:19 13° SSE 22:31:41 50° E 22:35:30 10° NNE
Meteor 1-11 4.3 22:29:42 10° SSW 22:35:29 85° WNW 22:41:15 10° N
Cosmos 2298 Rocket 4.0 22:35:04 10° SSW 22:40:23 79° ESE 22:45:43 10° NNE
Iridium 2 3.7 22:40:46 15° S 22:43:56 71° E 22:47:47 10° N
Cosmos 2227 Rocket 2.9 22:40:03 14° SSE 22:44:19 35° ESE 22:49:24 10° NE
Cosmos 1937 Rocket 3.6 22:39:51 10° S 22:44:57 55° ESE 22:50:02 10° NNE
CZ-4C R/B 4.3 22:39:54 10° NW 22:45:35 30° NNE 22:51:52 10° E
NOSS 0 Rocket 4.0 22:42:11 10° NNW 22:48:22 81° WSW 22:53:18 17° SSE
Meteor 1-4 Rocket 3.2 22:45:35 10° NNW 22:49:16 52° W 22:52:19 14° S
Cosmos 1666 Rocket 4.1 22:45:58 10° SSW 22:50:18 59° WNW 22:54:43 10° N
Cosmos 2333 Rocket 2.3 22:44:57 10° NNW 22:50:44 88° WSW 22:55:12 17° SSE
Landsat 7 4.2 22:47:08 13° S 22:51:22 59° W 22:56:06 10° NNW
Cosmos 292 Rocket 4.2 22:49:00 10° NNW 22:53:41 55° WSW 22:57:22 16° S
SL-16 R/B 2.9 22:48:13 10° NNW 22:53:42 46° NE 22:58:24 14° ESE
Cosmos 1933 4.4 22:51:04 10° N 22:54:48 34° ENE 22:57:14 18° SE
Cosmos 1386 Rocket 4.5 22:52:17 14° S 22:57:23 64° E 23:03:19 10° NNE
ERBS 4.1 22:58:35 17° ESE 22:58:35 17° ESE 23:00:16 10° E
Cosmos 990 Rocket 4.2 22:53:44 14° S 22:57:56 51° ESE 23:02:56 10° NNE
USA 234 4.4 22:52:26 10° ENE 22:58:35 45° N 23:04:45 10° WNW
IGS 5A 3.6 22:55:59 17° S 22:59:06 72° WSW 23:03:18 10° NNW
Cosmos 220 Rocket 4.0 22:55:25 12° S 22:59:27 67° ESE 23:03:53 10° NNE
H-2A R/B 2.5 22:56:35 14° S 23:01:08 64° WSW 23:06:34 10° NNW
Okean 1-7 4.5 22:58:20 10° NNE 23:01:57 26° ENE 23:04:31 15° ESE
COSMOS 2428 4.0 22:57:08 10° NW 23:02:05 32° WSW 23:06:58 10° SSW
Cosmos 1269 Rocket 4.4 22:57:18 10° NNW 23:02:32 55° ENE 23:06:23 18° SE
Cosmos 1703 Rocket 4.3 22:59:32 10° N 23:03:40 40° ENE 23:06:18 20° SE
Cosmos 1470 Rocket 3.5 23:00:14 16° S 23:03:41 82° E 23:08:03 10° NNE
Cosmos 1626 2.2 23:01:51 21° S 23:04:12 62° E 23:07:56 10° NNE
Spot 2 4.5 22:59:23 10° NNE 23:04:32 69° ESE 23:08:34 16° S
Cosmos 1933 Rocket 3.5 23:01:28 16° S 23:05:03 81° E 23:09:33 10° NNE
Spot 4 4.0 23:02:59 18° S 23:06:37 74° WSW 23:11:30 10° NNW
GEOS 3 Rocket 4.2 23:02:07 12° ESE 23:06:54 55° NE 23:11:58 10° NW
Terra 2.2 23:03:30 16° S 23:07:14 58° WSW 23:11:58 10° NNW
Cosmos 2221 Rocket 4.3 23:03:10 10° N 23:07:33 43° ENE 23:10:19 20° SE
COS B Rocket 4.3 23:05:56 10° NNE 23:09:15 32° E 23:11:06 21° SE
Cosmos 2297 Rocket 2.8 23:07:59 19° SSE 23:11:33 40° ESE 23:16:47 10° NE
Cosmos 1900 4.5 23:09:38 10° NW 23:14:40 72° NE 23:18:06 20° SE
Cosmos 2219 Rocket 2.8 23:10:19 10° NW 23:15:39 46° WSW 23:19:37 17° S
Cosmos 1898 Rocket 4.2 23:20:59 10° SW 23:26:03 54° WNW 23:31:12 10° NNE
NOSS 3-1 (A) 3.5 23:20:23 10° SW 23:26:24 85° NW 23:33:14 10° NE
Cosmos 1048 Rocket 4.2 23:23:57 10° NNW 23:29:19 72° ENE 23:32:45 23° SE
Cosmos 1455 3.2 23:27:06 10° NNW 23:30:41 40° W 23:33:01 19° SSW
Cosmos 1125 Rocket 4.0 23:29:01 23° SSE 23:31:58 46° ESE 23:37:01 10° NNE
Cosmos 1980 4.3 23:27:00 10° NW 23:32:24 47° WSW 23:35:59 20° S
Cosmos 1346 4.0 23:33:25 19° SW 23:35:15 44° WNW 23:38:11 10° N
SeaSat 1 2.4 23:33:16 24° SSE 23:36:20 89° NE 23:41:19 10° NNW
Cosmos 1869 4.1 23:33:13 10° NNW 23:37:05 44° W 23:39:29 21° SSW
BREEZE-M DEB (TANK) 3.5 23:24:05 10° W 23:37:36 86° SSW 23:41:13 11° ESE
IKONOS-2 4.5 23:36:00 27° SSE 23:38:18 88° E 23:42:37 10° NNW
Cosmos 389 Rocket 3.0 23:37:05 10° N 23:40:37 50° ENE 23:42:00 30° SE
Cosmos 2237 Rocket 3.0 23:39:58 10° NW 23:45:18 41° WSW 23:48:43 20° SSW
Cosmos 1689 Rocket 3.7 23:45:53 22° ESE 23:47:10 30° ENE 23:50:06 10° N
ATLAS 2AS CENTAUR R/B 3.0 23:41:30 10° SSW 23:49:00 67° SE 23:57:03 10° NE
ASTEX 1 4.3 23:46:22 10° NNE 23:50:50 34° E 23:53:06 23° SE
Cosmos 1241 Rocket 4.4 23:46:29 10° SW 23:52:42 89° SE 23:59:02 10° NE
Cosmos 2082 3.8 23:47:19 11° SSW 23:52:47 81° WNW 23:58:32 10° NNE
COSMOS 2455 2.9 23:47:31 10° NW 23:53:31 67° WSW 23:57:04 25° SSE
